ONEWEB-0552, 56054

Orbit data source: Space-Track

ONEWEB-0552, 56054 is a payload satellite owned by One Web (NAA) (UK) in LEO that was launched on Sun, 26 Mar 2023 UTC via a LVM3 launch vehicle from the Sirharikota (SRI). Payloads include a variety of satellites, spacecraft, and rockets equipped with specific instruments for various scientific and technological missions. These include communications satellites like Starlink; space stations such as the ISS; scientific satellites like the Hubble; Earth observation satellites from companies like Planet Labs, Umbra, and HawkEye 360; GPS; miniature CubeSats for education and research; and military/defense satellites.

Loading next visibility...
ONEWEB-0552 details
Identifier
56054, 2023-043J
Orbit
LEO
Last TLE update13 hours ago
Origin
Flag of UKOne Web (NAA) (UK)
ManufacturerOne Web
MissionOperational Commercial Communications
Bus & MotorARROW, Unknown motor
Mass148 kg wet, ~140 kg dry
Launch date (UTC)
2023-03-26 (2 years ago)
Launch vehicle
LVM3
Launch site
Sirharikota (SRI)
Object type
Payload
Rocket body
Debris
Shape & HBRTrap Box + 2 Pan, 5 m
Radar Cross Section2.032 m², Medium (>0.1 m² and < 1m²)

Expand to show TLE details & history

TLE from 13 hours ago
0 ONEWEB-0552
1 56054U 23043J   25014.92855045  .00000052  00000-0  94708-4 0  9991
2 56054  87.9311 347.2561 0001500  86.1177 274.0128 13.21826011 89764
Epoch: 2025-01-14T22:17Z
Definitive object data (Epoch: 2025-01-14T22:17:06.758Z)
Latitude-0.00009°
Longitude-101.65027°
Altitude1,180.579 km
Speed7.263 km/s
True Right ascension23h 09m 01s
True Declination0° 00' 00"
Sunlit
Object was in daylight at TLE epoch
Visualization TLE readout
Latitude41.99857°
Longitude76.38437°
Altitude1,183.234 km
Speed7.266 km/s
Apparent Right ascension07h 06m 20s
Apparent Declination25° 58' 32"
Sunlit
Object is in full shadow
Visualization observer readout
Local Sidereal Time12:22:07
Azimuth284.327° WNW
Elevation24.407°
Doppler factor1
Orbital elements
Apogee altitude1,175.989 km
Perigee altitude1,173.723 km
Semi-major axis7,552.993 km
Eccentricity0.00015
Inclination87.9311°
RAAN347.2561°
Arg. of periapsis86.1177°
True anomaly273.99565°
Mean anomaly274.0128°
Eccentric anomaly274.00423°
Mean motion3.30647 °/min
BSTAR0.000094708
Orbital period108.88 mins
Loading maneuver chart data...
Loading historical data...
Loading historical data...
Loading historical data...
Loading historical data...
Loading historical data...
Loading historical data...
Loading historical data...

ONEWEB-0552 Visibility forecast

Observer location: undefined°, undefined

Span
Click to sort rows by Start time (UTC) header in descending order
Start Az.
Max El. time (UTC)
Max El. Az.
Max El.
End time (UTC)
End Az.
5 mins2025-01-15 11:41:53.305Z284.036° WNW2025-01-15 11:41:53.305Z284.036° WNW22.392°2025-01-15 11:46:53.305Z236.157° WSW
12 mins2025-01-15 22:00:53.305Z158.684° S2025-01-15 22:05:53.305Z99.298° ESE40.446°2025-01-15 22:12:53.305Z8.906° NNE
9 mins2025-01-15 23:51:53.305Z242.964° WSW2025-01-15 23:55:53.305Z284.887° WNW21.903°2025-01-16 00:00:53.305Z332.099° NNW
12 mins2025-01-16 09:24:53.305Z17.61° NNE2025-01-16 09:29:53.305Z72.748° E33.959°2025-01-16 09:36:53.305Z152.359° SSE
10 mins2025-01-16 11:14:53.305Z330.839° NNW2025-01-16 11:18:53.305Z285.252° WNW28.452°2025-01-16 11:24:53.305Z222.568° SW
|